[Iaude] MPEC J103: 2024 JO2 [a=2.44,e=0.64,i=4.4,H=27.9]
    mpec at cfa.harvard.edu 
    mpec at cfa.harvard.edu
       
    Mon May  6 17:17:35 EDT 2024
    
    
  
M.P.E.C. 2024-J103                                  Issued 2024 May 6, 21:16 UT
     The Minor Planet Electronic Circulars contain information on unusual
         minor planets, routine data on comets and natural satellites,
         and occasional editorial announcements.  They are published
    on behalf of Division F of the International Astronomical Union by the
          Minor Planet Center, Smithsonian Astrophysical Observatory,
                          Cambridge, MA 02138, U.S.A.
			  
             Prepared using the Tamkin Foundation Computer Network
                              MPC at CFA.HARVARD.EDU
            URL https://www.minorplanetcenter.net/    ISSN 1523-6714
                                    2024 JO2                                    
Observations:
     K24J02O*1C2024 05 05.35044814 46 44.692+04 12 41.65         19.84GVEJ103G96
     K24J02O 1C2024 05 05.35561114 46 53.868+04 13 11.28         19.46GVEJ103G96
     K24J02O 1C2024 05 05.36075814 47 03.167+04 13 41.77         19.44GVEJ103G96
     K24J02O mC2024 05 05.38898014 47 55.068+04 16 29.53         19.43GVEJ103I52
     K24J02O mC2024 05 05.38925514 47 55.576+04 16 31.15         19.40GVEJ103I52
     K24J02O mC2024 05 05.38953014 47 56.069+04 16 32.52         19.93GVEJ103I52
     K24J02O KC2024 05 05.46171314 50 18.701+04 23 58.60         19.50GVEJ103I52
     K24J02O KC2024 05 05.46337814 50 22.175+04 24 09.72         19.96GVEJ103I52
     K24J02O KC2024 05 05.46503114 50 25.616+04 24 20.20         19.77GVEJ103I52
     K24J02O KC2024 05 05.46669014 50 29.105+04 24 31.07         19.87GVEJ103I52
     K24J02O KC2024 05 05.83857415 08 38.19 +05 12 33.8          18.2 GVEJ103104
     K24J02O KC2024 05 05.84100615 08 46.32 +05 12 59.0          18.8 GVEJ103104
     K24J02O KC2024 05 05.84742015 09 07.89 +05 14 04.0          18.4 GVEJ103104
     K24J02O 1C2024 05 05.87647 15 10 44.11 +05 17 55.8          19.8 VXEJ103033
     K24J02O 1C2024 05 05.87679 15 10 45.24 +05 17 59.2          20.0 VXEJ103033
     K24J02O 1C2024 05 05.87711 15 10 46.36 +05 18 02.5          20.0 VXEJ103033
     K24J02O 1C2024 05 05.87742 15 10 47.45 +05 18 05.6          19.8 VXEJ103033
     K24J02O hC2024 05 05.89355915 11 45.17 +05 21 50.9          19.7 GVEJ103L01
     K24J02O IC2024 05 05.89535415 11 51.52 +05 22 08.6          19.5 GVEJ103L01
     K24J02O hC2024 05 05.89696015 11 57.24 +05 22 26.2          19.5 GVEJ103L01
     K24J02O hC2024 05 05.90251115 12 17.06 +05 23 24.7          19.7 GVEJ103L01
     K24J02O KC2024 05 05.92679615 13 46.54 +05 42 23.7          19.6 GVEJ103M21
     K24J02O KB2024 05 05.96990915 16 28.706+05 37 17.22         18.8 GXEJ103L34
     K24J02O KC2024 05 05.97719 15 16 53.45 +05 36 48.5          19.0 GoEJ103K88
     K24J02O KC2024 05 05.98687615 17 31.98 +05 38 40.4          19.0 RoEJ103K88
     K24J02O KC2024 05 05.98813115 17 37.00 +05 38 55.6          18.9 RoEJ103K88
     K24J02O KC2024 05 05.99950 15 18 23.11 +05 41 08.8          19.0 GoEJ103K88
     K24J02O KC2024 05 06.19780515 35 47.224+06 28 52.28         18.81GVEJ103I52
     K24J02O KC2024 05 06.19882415 35 52.984+06 29 08.48         18.89GVEJ103I52
     K24J02O KC2024 05 06.19984515 35 58.765+06 29 24.72         18.50GVEJ103I52
     K24J02O KC2024 05 06.20086515 36 04.558+06 29 41.17         18.96GVEJ103I52
     K24J02O KC2024 05 06.20188515 36 10.310+06 29 57.16         18.33GVEJ103I52
     K24J02O KB2024 05 06.21534 15 37 02.64 +06 35 11.0          17.8 GXEJ103W42
     K24J02O KB2024 05 06.22108 15 37 35.31 +06 36 43.6          17.8 GXEJ103W42
     K24J02O KB2024 05 06.22690 15 38 08.70 +06 38 17.5          18.5 GXEJ103W42
Observer details:
033 Karl Schwarzschild Observatory, Tautenburg.  Observers S. Melnikov, C.
    Hogner, F. Ludwig, M. Hartmann, B. Stecklum.  Measurer B. Stecklum.
    1.34-m f/3 Schmidt + CCD.
104 San Marcello Pistoiese.  Observers P. Bacci, M. Maestripieri.  Measurers
    P. Bacci, L. Tesi, G. Fagioli.  0.60-m F4 Reflector + CCD.
G96 Mt. Lemmon Survey.  Observer G. J. Leonard.  Measurers T. Beuden, V. F.
    Carvajal, D. Fay, J. B. Fazekas, D. C. Fuls, A. R. Gibbs, A. D. Grauer, H.
    Groeller, J. K. Hogan, R. A. Kowalski, S. M. Larson, G. J. Leonard, D.
    Rankin, R. L. Seaman, F. C. Shelly, K. W. Wierzchos.  1.5-m reflector +
    10K CCD.
I52 Steward Observatory, Mt. Lemmon Station.  Observers V. F. Carvajal, R. A.
    Kowalski.  Measurers T. Beuden, V. F. Carvajal, D. Fay, J. B. Fazekas, D.
    C. Fuls, A. R. Gibbs, A. D. Grauer, H. Groeller, J. K. Hogan, R. A.
    Kowalski, S. M. Larson, G. J. Leonard, D. Rankin, R. L. Seaman, F. C.
    Shelly, K. W. Wierzchos.  1.0-m prime focus + CCD.
K88 GINOP-KHK, Piszkesteto.  Observer K. Sarneczky.  0.60-m Schmidt + CCD.
L01 Visnjan Observatory, Tican.  Observer K. Korlevic.  1.0-m f/2.9 reflector
    + CCD.
L34 Galhassin Robotic Telescope, Isnello.  Observer A. Nastasi.  0.40-m f/3.8
    400mm Reflector + CMO.
M21 Schiaparelli Southern Observatory, Hakos.  Observers A. Aletti, F.
    Bellini, L. Buzzi, G. Galli.  Measurer L. Buzzi.  0.36-m f/8.4 reflector +
    CCD.
W42 Mind's Eye Observatory, Vero Beach.  Observer J. T. Grage.  0.30-m f/3.3
    SCT + CMO.
Orbital elements:
2024 JO2                                                 Earth MOID = 0.0021 AU
Epoch 2024 Mar. 31.0 TT = JDT 2460400.5                 Bell                    
M 341.06889              (2000.0)            P               Q                  
n   0.25927167     Peri.  228.74551     +0.12886794     +0.98998992             
a   2.4357498      Node    48.75451     -0.88540602     +0.14100554             
e   0.6445182      Incl.    4.39040     -0.44659739     +0.00611468             
P   3.80           H   27.99          G   0.15           U   7                  
Residuals in seconds of arc
240505 G96  0.3+  0.3+    240505 104  0.5+  0.8+    240505 K88  0.1-  0.4-
240505 G96  0.5-  0.3-    240505 033  0.1+  0.2+    240505 K88  0.4-  0.2+
240505 G96  0.1+  0.0     240505 033  0.3+  0.3+    240505 K88  0.2+  0.0
240505 I52  0.6+  0.0     240505 033  0.4+  0.3+    240506 I52  0.0   0.3-
240505 I52  0.5+  0.0     240505 033  0.5+  0.2+    240506 I52  0.1+  0.3-
240505 I52  0.2+  0.3-    240505 L01  0.5-  0.9+    240506 I52  0.1+  0.3-
240505 I52  0.2+  0.6-    240505 L01  0.7-  0.5-    240506 I52  0.3+  0.1-
240505 I52  0.1+  0.1-    240505 L01  0.4-  0.0     240506 I52  0.1-  0.4-
240505 I52  0.2-  0.1-    240505 L01  0.0   0.7-    240506 W42  0.1+  0.8+
240505 I52  0.2-  0.1+    240505 M21  0.1-  0.6-    240506 W42  0.0   0.8+
240505 104  0.1+  0.5-    240505 L34  0.3-  0.9+    240506 W42  0.6-  0.2+
240505 104  0.1+  0.4+    240505 K88  0.4+  0.1-
Ephemeris:
2024 JO2                 a,e,i = 2.44, 0.64, 4                   q = 0.8659
Date    TT    R. A. (2000) Decl.     Delta      r    Elong.  Phase     V
2024 04 06    13 48 23.8 -00 10 08   0.2775  1.2721   166.5    10.6    26.4
...
2024 04 21    13 51 51.6 +00 53 15   0.1369  1.1388   167.2    11.2    24.6
...
2024 04 29    13 58 26.6 +01 36 20   0.06828 1.0724   162.6    16.3    23.2
...
2024 05 05    14 37 06.5 +03 46 57   0.01857 1.0260   159.8    19.9    20.4
2024 05 06    15 18 30.9 +05 50 18   0.01068 1.0186   156.7    23.0    19.3
2024 05 07    18 29 27.2 +11 51 49   0.0045911.0114   120.1    59.7    18.5
...
2024 05 13    01 25 23.8 +00 05 43   0.04851 0.9704    33.5   144.9    28.9
...
2024 05 21    01 39 02.4 -00 10 22   0.1157  0.9241    38.3   137.2    29.6
...
2024 06 05    01 53 18.3 +01 13 05   0.2465  0.8710    48.5   119.3    29.4
M. P. C. Staff               (C) Copyright 2024 MPC           M.P.E.C. 2024-J103
    
    
More information about the Iaude
mailing list